Regional Weather Roundup
Issued by NWS

Home | Current Version | Previous Version | Graphics & Text | Print | Product List | Glossary On
Versions: 1 2 3 4 5 6 7 8 9 10 11 12 13 14 15 16 17 18 19 20 21 22 23 24 25 26 27 28 29 30 31 32 33 34 35 36 37 38 39 40 41 42 43 44 45 46 47 48 49 50
000
ASUS43 KMKX 260910
RWRWI

WISCONSIN REGIONAL WEATHER ROUNDUP
NATIONAL WEATHER SERVICE MILWAUKEE/SULLIVAN WI
300 AM CST MON JAN 26 2015

NOTE: "FAIR" INDICATES FEW OR NO CLOUDS BELOW 12,000 FEET WITH NO
SIGNIFICANT WEATHER AND/OR OBSTRUCTIONS TO VISIBILITY.

WIZ001-002-006>008-014>016-023>028-261000-
NORTHWEST WISCONSIN

CITY           SKY/WX    TMP DP  RH WIND       PRES   REMARKS
SUPERIOR ARPT  FLURRIES  22  14  70 SW8       29.82F WCI  13
ASHLAND        CLOUDY    20  10  65 S8        29.87F WCI  10
HAYWARD        CLOUDY    19  10  68 S9        29.85F WCI   8
SIREN          LGT SNOW  21  16  78 S8        29.85F WCI  12
CUMBERLAND     CLOUDY    18  12  79 S7        29.87R WCI   8
RICE LAKE      CLOUDY    19  12  76 S5        29.90F WCI  12
CHETEK         CLOUDY    19  13  77 CALM      29.90F
LADYSMITH      CLOUDY    18  11  74 S6        29.90F WCI   9
EAU CLAIRE     CLOUDY    20  12  71 S9        29.91F WCI   9
MENOMONIE      CLOUDY    21  15  79 SE6       29.91F WCI  13
NEW RICHMOND   CLOUDY    21  17  84 S7        29.89S WCI  12
OSCEOLA        FLURRIES  22  18  83 S9        29.88F WCI  12
$$

WIZ003>005-009-010-017-018-261000-
NORTH CENTRAL WISCONSIN

CITY           SKY/WX    TMP DP  RH WIND       PRES   REMARKS
MANITOWISH WTR CLOUDY    12   5  73 S7        29.86S WCI   2
ARBOR VITAE    CLOUDY    14   7  75 SW7       29.88S WCI   4
WOODRUFF       CLOUDY    14   7  75 SW7       29.88S WCI   4
RHINELANDER    MOCLDY    12   4  70 SW8       29.89F WCI   0
EAGLE RIVER    MOCLDY    11   4  72 CALM      29.87F
LAND O LAKES   CLOUDY    13   6  74 S8        29.86F WCI   1
PHILLIPS       CLOUDY    13   7  76 S8        29.87F WCI   2
TOMAHAWK       CLOUDY    10   5  79 CALM      29.90F
MEDFORD        CLOUDY    14   7  73 S10       29.91S WCI   1
MERRILL        CLOUDY    12   7  79 S3        29.92F
$$

WIZ029-030-035-036-043>047-261000-
CENTRAL WISCONSIN

CITY           SKY/WX    TMP DP  RH WIND       PRES   REMARKS
WAUSAU         CLOUDY    12   6  77 SE6       29.92F WCI   3
MOSINEE        CLOUDY    10   9  92 SE3       29.94F
MARSHFIELD     MOCLDY    15   7  70 S8        29.94F WCI   4
STEVENS POINT  PTCLDY     3  -1  84 CALM      29.96F
WAUPACA        CLEAR     11   7  83 CALM      29.99S
WAUTOMA        CLEAR      7   4  87 CALM      29.99F
WISC RAPIDS    PTCLDY    11   5  77 S5        29.97F WCI   3
CAMP DOUGLAS   MOCLDY    14  14  98 VRB3      29.97F
$$

WIZ011>013-019>022-031-037>040-048>050-261000-
NORTHEAST WISCONSIN

CITY           SKY/WX    TMP DP  RH WIND       PRES   REMARKS
ANTIGO         PTCLDY     7   3  85 SW5       29.93S WCI  -2
SHAWANO        CLOUDY    11   8  85 CALM      29.99F
OCONTO         MOCLDY     5   3  91 CALM      30.00F
STURGEON BAY   PTCLDY    10   5  79 CALM      30.00F
GREEN BAY      MOCLDY    11   8  88 CALM      29.99F
MANITOWOC      PTCLDY    11   9  92 CALM      30.00S
APPLETON       CLOUDY    12   7  79 CALM      29.97F
CLINTONVILLE   PTCLDY    10   5  79 CALM      29.98F
OSHKOSH        MOCLDY    13   7  77 CALM      29.98F
$$

WIZ032>034-041-042-053>061-261000-
SOUTHWEST WISCONSIN

CITY           SKY/WX    TMP DP  RH WIND       PRES   REMARKS
LA CROSSE      CLOUDY    23  13  65 S12       29.96F WCI  12
SPARTA         CLOUDY    19  12  73 CALM      29.99S
VIROQUA        CLOUDY    18  13  80 S8        29.94F WCI   8
BOSCOBEL       MOCLDY    17  13  84 CALM      30.00F
PRAIRIE DU CHI CLOUDY    20  13  73 CALM      30.01F
PLATTEVILLE    PTCLDY    15  11  87 CALM      29.99F
$$

WIZ056-057-062-063-064-067-068-261000-
SOUTH CENTRAL WISCONSIN

CITY           SKY/WX    TMP DP  RH WIND       PRES   REMARKS
REEDSBURG      CLEAR     13  10  90 CALM      29.99F
BARABOO/DELLS  CLEAR     11   8  87 CALM      29.98F
LONE ROCK      PTCLDY    13  10  88 CALM      30.00F
MINERAL POINT  NOT AVBL
MADISON        CLEAR     10   7  87 CALM      29.99F
MIDDLETON      CLEAR     12   8  85 CALM      30.00S
WATERTOWN      CLEAR     10   8  89 CALM      29.98F
MONROE         CLEAR     14  12  92 NW6       29.98S WCI   5
JANESVILLE     CLEAR     14  10  85 CALM      29.99F
$$

WIZ051-052-058>065-066-070>072-261000-
SOUTHEAST WISCONSIN

CITY           SKY/WX    TMP DP  RH WIND       PRES   REMARKS
MILWAUKEE      CLOUDY    17  11  77 NW7       29.99F WCI   8
WAUKESHA       FAIR      10   9  92 W5        29.99S WCI   2
MILWAUKEE/TIMM MOCLDY    14  10  85 CALM      30.00S
RACINE         MOCLDY    22  14  71 E5        30.00F WCI  16
BURLINGTON     CLEAR     10   8  89 W5        29.99S WCI   2
KENOSHA        MOCLDY    16  12  84 W7        29.98F WCI   6
FOND DU LAC    MOCLDY    11   6  81 CALM      29.98F
SHEBOYGAN      PTCLDY    12   6  77 W3        29.99S
WEST BEND      PTCLDY    12   9  85 CALM      29.97F
JUNEAU         CLEAR     12   7  79 CALM      29.98F
$$

LSZ147-162-261000-
LAKE SUPERIOR

STATION/POSITION TIME  TEMP    WIND        PRES    WAVE
                       AIR SEA DIR/SP/G            HT/PER
                 (UTC) (F)     (DEG/KT/KT) (MB)    (FT/S)
DEVILS ISLAND    0900   20     200/  9/ 12 1012.3F
PORT WING        0840   22     180/  7/ 13 1011.2F
SAXON HARBOR     0840   20     200/  5/ 10 1012.2F
$$

LMZ867-665-643>646-261000-
LAKE MICHIGAN

STATION/POSITION TIME  TEMP    WIND        PRES    WAVE
                       AIR SEA DIR/SP/G            HT/PER
                 (UTC) (F)     (DEG/KT/KT) (MB)    (FT/S)
NORTHPORT PIER   0813   11      CALM  /  2 1016.3F
SISTER BAY       0843    9        CALM       N/A
KEWAUNEE LAKESHO 0800   12     300/  2/  3 1015.0F
SHEBOYGAN LAKESH 0900   23     150/  8/  9 1016.7F
PORT WASHINGTON  0840   17        CALM     1016.6F
MILWAUKEE LAKESH 0800   20     310/  3/  3   N/A
KENOSHA   LAKESH 0900   24      80/  8/ 11 1015.6F
$$

TC  - TEMPERATURE IN CELSIUS
VSB - VISIBILITY IN STATUTE MILES
WCI - WIND CHILL INDEX
HX  - HEAT INDEX



USA.gov is the U.S. government's official web portal to all federal, state and local government web resources and services.